Find Starlink 5775

NORAD ID: 56503 Int'l Des: 2023-065 Owner: SPXS Country: US Constellation: starlink operational
LEOCIRCULAR

当前视图

正在加载3D地球...

About Starlink 5775

Starlink 5775 (NORAD 56503) is a starlink constellation satellite (v1.5) launched May 14, 2023 by SPXS of US. It operates in LEO, CIRCULAR orbit with a mass of 305.00 kg.

关于 Starlink 5775

正在加载描述...

即将过境

Passes for default location (London). Set your location on the main map for personalized predictions.

高度历史

Loading altitude history...

两行轨道根数

1 56503C 23065A 26173.91576389 .00057793 00000+0 20932-2 0 1734
2 56503 43.0041 338.0307 0001741 273.4805 137.5336 15.27550802 13
Epoch: Jun 22, 2026 • Age: 16 hours

当前状态

高度 485.3 km
速度 7.63 km/s
星下点 34.43°N, 14.3°W
发射日期 May 14, 2023
运行时间 3.1 years
类型 internet

技术详情

分类 Payload
质量 305.00 kg
干质量 290.00 kg
总质量 305.00 kg
长度 0.20 m
直径 2.80 m
跨度 9.00 m
形状 Box + pan
制造商 SPXS
平台类型 Starlink
阶段状态 In Orbit
所有者/国家 SPXS/US

Most Searched